Eureka, NV

8:22 PM PDT on July 26, 2017 (GMT -0700)
Eureka

Weather History for KP68 - September, 2013

Change the Weather History Date:

Wednesday, September 4, 2013

  Actual Average Record
Temperature  
Mean Temperature 69 °F 62 °F  
Max Temperature 85 °F 82 °F 91 °F (2010)
Min Temperature 52 °F 43 °F 26 °F (1999)
Degree Days  
Heating Degree Days 0 4  
Month to date heating degree days 0 13  
Since 1 July heating degree days 1 60  
Cooling Degree Days 4 1  
Month to date cooling degree days 15 4  
Year to date cooling degree days 556 281  
Growing Degree Days 18 (Base 50)    
Moisture  
Dew Point 52 °F    
Average Humidity 61    
Maximum Humidity 93    
Minimum Humidity 28    
Precipitation  
Precipitation 0.00 in 0.02 in 1.02 in (1995)
Month to date precipitation 0.43 0.08  
Year to date precipitation 5.38 6.37  
Sea Level Pressure  
Sea Level Pressure 30.01 in    
Wind  
Wind Speed 11 mph (SSE)    
Max Wind Speed 32 mph    
Max Gust Speed 39 mph    
T = Trace of Precipitation, MM = Missing Value Source: NWS Daily Summary

Daily Weather History Graph

Daily Weather History Graph

Search for Another Location

Airport or City:

Trip Planner

Search our weather history database for the weather conditions in past years. The results will help you decide how hot, cold, wet, or windy it might be!

Date:

Astronomy

Sep. 04, 2013 Rise Set
Actual Time 6:15 AM PDT 7:09 PM PDT
Civil Twilight 5:47 AM PDT 7:36 PM PDT
Nautical Twilight 5:15 AM PDT 8:09 PM PDT
Astronomical Twilight 4:41 AM PDT 8:42 PM PDT
Moon 5:31 AM PDT (9/4) 6:31 PM PDT (9/4)
Length of Visible Light 13h 49m
Length of Day
12h 54m
Waning Crescent, 1% of the Moon is Illuminated
Sep 4
Waning Crescent
Sep 5
New
Sep 12
First Quarter
Sep 19
Full
Sep 26
Last Quarter

Hourly Weather History & Observations

Time (PDT) Temp. Heat Index Dew Point Humidity Pressure Visibility Wind Dir Wind Speed Gust Speed Precip Events Conditions
12:53 AM 60.1 °F - 55.0 °F 83% 30.04 in - Calm Calm - N/A   Unknown
1:53 AM 59.0 °F - 55.9 °F 90% 30.07 in - South 4.6 mph - N/A   Unknown
2:53 AM 59.0 °F - 55.0 °F 87% 30.05 in - ESE 4.6 mph - N/A   Unknown
3:53 AM 55.9 °F - 54.0 °F 93% 30.04 in - Calm Calm - N/A   Unknown
4:53 AM 55.0 °F - 54.0 °F 96% 30.05 in - SSW 3.5 mph - N/A   Unknown
5:53 AM 53.1 °F - 52.0 °F 96% 30.06 in - Calm Calm - N/A   Unknown
6:53 AM 53.1 °F - 51.1 °F 93% 30.08 in - Calm Calm - N/A   Unknown
7:53 AM 57.9 °F - 55.0 °F 90% 30.10 in - Calm Calm - N/A   Unknown
8:53 AM 64.0 °F - 55.9 °F 75% 30.09 in - North 3.5 mph - N/A   Unknown
9:53 AM 73.9 °F - 55.9 °F 53% 30.06 in - SSE 15.0 mph 18.4 mph N/A   Unknown
10:53 AM 77.0 °F - 55.9 °F 48% 30.04 in - SE 17.3 mph - N/A   Unknown
11:53 AM 80.1 °F - 52.0 °F 38% 30.01 in - South 16.1 mph - N/A   Unknown
12:53 PM 81.0 °F 80.4 °F 53.1 °F 38% 29.99 in - SSE 16.1 mph 25.3 mph N/A   Unknown
1:53 PM 82.9 °F - 51.1 °F 33% 29.97 in - South 16.1 mph - N/A   Unknown
2:53 PM 84.0 °F - 48.9 °F 29% 29.94 in - South 16.1 mph 25.3 mph N/A   Unknown
3:53 PM 82.0 °F - 48.9 °F 31% 29.94 in - SSE 21.9 mph 29.9 mph N/A   Unknown
4:53 PM 82.0 °F - 48.9 °F 31% 29.94 in - South 16.1 mph - N/A   Unknown
5:53 PM 81.0 °F - 45.0 °F 28% 29.94 in - SSW 8.1 mph - N/A   Unknown
6:53 PM 77.0 °F - 46.9 °F 34% 29.95 in - SSE 13.8 mph - N/A   Unknown
7:53 PM 71.1 °F - 46.9 °F 42% 29.96 in - SSE 11.5 mph - N/A   Unknown
8:53 PM 66.9 °F - 51.1 °F 57% 29.96 in - SSE 10.4 mph - N/A   Unknown
9:53 PM 71.1 °F - 46.9 °F 42% 29.94 in - South 21.9 mph 29.9 mph N/A   Unknown
10:53 PM 66.9 °F - 50.0 °F 54% 29.97 in - South 27.6 mph 39.1 mph N/A   Unknown
11:53 PM 66.9 °F - 48.9 °F 52% 29.97 in - SSE 9.2 mph - N/A   Unknown